owner,sensor,date,latitude,longitude,vertical_datum,direction_of_sea_water_velocity,sea_water_speed,upward_sea_water_velocity,qcFlag 
TABS,ioos:station:wmo:42044:1,2006-08-01T00:00:00Z,26.1914,-97.0507,2.0,8.492919627,20.11051964,-99999.0,'11111222,11111222,99999999' 
TABS,ioos:station:wmo:42044:1,2006-08-01T00:30:00Z,26.1914,-97.0507,2.0,2.244036835,17.6235127,-99999.0,'11111222,11111222,99999999' 
TABS,ioos:station:wmo:42044:1,2006-08-01T01:00:00Z,26.1914,-97.0507,2.0,7.947504979,13.74198312,-99999.0,'11111222,11111222,99999999' 
TABS,ioos:station:wmo:42044:1,2006-08-01T01:30:00Z,26.1914,-97.0507,2.0,353.894648,20.49626307,-99999.0,'11111222,11111222,99999999' 
TABS,ioos:station:wmo:42044:1,2006-08-01T02:00:00Z,26.1914,-97.0507,2.0,349.4191901,20.96651139,-99999.0,'11111222,11111222,99999999' 
TABS,ioos:station:wmo:42044:1,2006-08-01T02:30:00Z,26.1914,-97.0507,2.0,355.2846559,21.77370203,-99999.0,'11111222,11111222,99999999' 
TABS,ioos:station:wmo:42044:1,2006-08-01T03:00:00Z,26.1914,-97.0507,2.0,352.2912258,22.51347374,-99999.0,'11111222,11111222,99999999' 
TABS,ioos:station:wmo:42044:1,2006-08-01T03:30:00Z,26.1914,-97.0507,2.0,351.0746863,24.04111894,-99999.0,'11111222,11111222,99999999' 
TABS,ioos:station:wmo:42044:1,2006-08-01T04:00:00Z,26.1914,-97.0507,2.0,347.7419724,26.18705214,-99999.0,'11111222,11111222,99999999' 
TABS,ioos:station:wmo:42044:1,2006-08-01T04:30:00Z,26.1914,-97.0507,2.0,342.5239023,25.70659059,-99999.0,'11111222,11111222,99999999' 
TABS,ioos:station:wmo:42044:1,2006-08-01T05:00:00Z,26.1914,-97.0507,2.0,350.7336249,26.95172722,-99999.0,'11111222,11111222,99999999' 
TABS,ioos:station:wmo:42044:1,2006-08-01T05:30:00Z,26.1914,-97.0507,2.0,344.503952,26.46195193,-99999.0,'11111222,11111222,99999999' 
TABS,ioos:station:wmo:42044:1,2006-08-01T06:00:00Z,26.1914,-97.0507,2.0,339.4979424,26.21020603,-99999.0,'11111222,11111222,99999999' 
TABS,ioos:station:wmo:42044:1,2006-08-01T06:30:00Z,26.1914,-97.0507,2.0,340.7734415,26.08495735,-99999.0,'11111222,11111222,99999999' 
TABS,ioos:station:wmo:42044:1,2006-08-01T07:00:00Z,26.1914,-97.0507,2.0,344.7747311,32.25205885,-99999.0,'11111222,11111222,99999999' 
TABS,ioos:station:wmo:42044:1,2006-08-01T07:30:00Z,26.1914,-97.0507,2.0,347.1443071,30.96624291,-99999.0,'11111222,11111222,99999999' 
TABS,ioos:station:wmo:42044:1,2006-08-01T08:00:00Z,26.1914,-97.0507,2.0,348.518246,31.34734439,-99999.0,'11111222,11111222,99999999' 
TABS,ioos:station:wmo:42044:1,2006-08-01T08:30:00Z,26.1914,-97.0507,2.0,345.9273716,30.35091432,-99999.0,'11111222,11111222,99999999' 
TABS,ioos:station:wmo:42044:1,2006-08-01T09:00:00Z,26.1914,-97.0507,2.0,347.11221,30.62142061,-99999.0,'11111222,11111222,99999999' 
TABS,ioos:station:wmo:42044:1,2006-08-01T09:30:00Z,26.1914,-97.0507,2.0,351.4213081,34.1217775,-99999.0,'11111222,11111222,99999999' 
TABS,ioos:station:wmo:42044:1,2006-08-01T10:00:00Z,26.1914,-97.0507,2.0,356.6672309,32.16440579,-99999.0,'11111222,11111222,99999999' 
TABS,ioos:station:wmo:42044:1,2006-08-01T10:30:00Z,26.1914,-97.0507,2.0,353.4460452,30.75097722,-99999.0,'11111222,11111222,99999999' 
TABS,ioos:station:wmo:42044:1,2006-08-01T11:00:00Z,26.1914,-97.0507,2.0,356.7671267,31.02938768,-99999.0,'11111222,11111222,99999999' 
TABS,ioos:station:wmo:42044:1,2006-08-01T11:30:00Z,26.1914,-97.0507,2.0,355.7557934,21.07780824,-99999.0,'11111222,11111222,99999999' 
TABS,ioos:station:wmo:42044:1,2006-08-01T12:00:00Z,26.1914,-97.0507,2.0,359.6873668,25.64038221,-99999.0,'11111222,11144222,99999999' 
TABS,ioos:station:wmo:42044:1,2006-08-01T12:30:00Z,26.1914,-97.0507,2.0,1.416815593,25.88791224,-99999.0,'11111222,11111222,99999999' 
TABS,ioos:station:wmo:42044:1,2006-08-01T13:00:00Z,26.1914,-97.0507,2.0,358.597581,28.18844621,-99999.0,'11111222,11111222,99999999' 
TABS,ioos:station:wmo:42044:1,2006-08-01T13:30:00Z,26.1914,-97.0507,2.0,358.4005835,24.35949302,-99999.0,'11111222,11111222,99999999' 
TABS,ioos:station:wmo:42044:1,2006-08-01T14:00:00Z,26.1914,-97.0507,2.0,14.58977476,22.35070021,-99999.0,'11111222,11111222,99999999' 
TABS,ioos:station:wmo:42044:1,2006-08-01T14:30:00Z,26.1914,-97.0507,2.0,359.1588129,22.4724231,-99999.0,'11111222,11144222,99999999' 
TABS,ioos:station:wmo:42044:1,2006-08-01T15:00:00Z,26.1914,-97.0507,2.0,1.636783673,22.05899816,-99999.0,'11111222,11111222,99999999' 
TABS,ioos:station:wmo:42044:1,2006-08-01T15:30:00Z,26.1914,-97.0507,2.0,10.47802977,18.36625166,-99999.0,'11111222,11111222,99999999' 
TABS,ioos:station:wmo:42044:1,2006-08-01T16:00:00Z,26.1914,-97.0507,2.0,359.1596194,21.81234742,-99999.0,'11111222,11144222,99999999' 
TABS,ioos:station:wmo:42044:1,2006-08-01T16:30:00Z,26.1914,-97.0507,2.0,352.5950772,22.5783126,-99999.0,'11111222,11111222,99999999' 
TABS,ioos:station:wmo:42044:1,2006-08-01T17:00:00Z,26.1914,-97.0507,2.0,357.2971624,22.26477262,-99999.0,'11111222,11111222,99999999' 
TABS,ioos:station:wmo:42044:1,2006-08-01T17:30:00Z,26.1914,-97.0507,2.0,356.3393047,22.39570048,-99999.0,'11111222,11111222,99999999' 
TABS,ioos:station:wmo:42044:1,2006-08-01T18:00:00Z,26.1914,-97.0507,2.0,11.00673844,15.55614991,-99999.0,'11111222,11111222,99999999' 
TABS,ioos:station:wmo:42044:1,2006-08-01T18:30:00Z,26.1914,-97.0507,2.0,1.98654651,13.8483212,-99999.0,'11111222,11111222,99999999' 
TABS,ioos:station:wmo:42044:1,2006-08-01T19:00:00Z,26.1914,-97.0507,2.0,359.2055923,7.210693448,-99999.0,'11133222,11144222,99999999' 
TABS,ioos:station:wmo:42044:1,2006-08-01T19:30:00Z,26.1914,-97.0507,2.0,338.765556,7.509886817,-99999.0,'11133222,11111222,99999999' 
TABS,ioos:station:wmo:42044:1,2006-08-01T20:00:00Z,26.1914,-97.0507,2.0,351.5329452,6.248103712,-99999.0,'11133222,11111222,99999999' 
TABS,ioos:station:wmo:42044:1,2006-08-01T20:30:00Z,26.1914,-97.0507,2.0,334.2550261,8.126702898,-99999.0,'11133222,11111222,99999999' 
TABS,ioos:station:wmo:42044:1,2006-08-01T21:00:00Z,26.1914,-97.0507,2.0,343.9896373,8.447680155,-99999.0,'11133222,11111222,99999999' 
TABS,ioos:station:wmo:42044:1,2006-08-01T21:30:00Z,26.1914,-97.0507,2.0,310.8449128,8.684889176,-99999.0,'11133222,11111222,99999999' 
TABS,ioos:station:wmo:42044:1,2006-08-01T22:00:00Z,26.1914,-97.0507,2.0,299.4168596,5.843372314,-99999.0,'11133222,11111222,99999999' 
TABS,ioos:station:wmo:42044:1,2006-08-01T22:30:00Z,26.1914,-97.0507,2.0,315.5894532,5.501581591,-99999.0,'11133222,11111222,99999999' 
TABS,ioos:station:wmo:42044:1,2006-08-01T23:00:00Z,26.1914,-97.0507,2.0,314.3250583,7.799929487,-99999.0,'11133222,11111222,99999999' 
TABS,ioos:station:wmo:42044:1,2006-08-01T23:30:00Z,26.1914,-97.0507,2.0,306.4214239,11.23434466,-99999.0,'11111222,11111222,99999999' 
TABS,ioos:station:wmo:42044:1,2006-08-02T00:00:00Z,26.1914,-97.0507,2.0,310.7603477,12.52886667,-99999.0,'11111222,11111222,99999999' 
TABS,ioos:station:wmo:42044:1,2006-08-02T00:30:00Z,26.1914,-97.0507,2.0,296.1650587,11.52050346,-99999.0,'11111222,11111222,99999999' 
TABS,ioos:station:wmo:42044:1,2006-08-02T01:00:00Z,26.1914,-97.0507,2.0,284.8532256,11.74234219,-99999.0,'11111222,11111222,99999999' 
TABS,ioos:station:wmo:42044:1,2006-08-02T01:30:00Z,26.1914,-97.0507,2.0,278.0706342,8.120418708,-99999.0,'11133222,11111222,99999999' 
TABS,ioos:station:wmo:42044:1,2006-08-02T02:00:00Z,26.1914,-97.0507,2.0,290.293043,15.02238996,-99999.0,'11111222,11111222,99999999' 
TABS,ioos:station:wmo:42044:1,2006-08-02T02:30:00Z,26.1914,-97.0507,2.0,307.966551,14.32062149,-99999.0,'11111222,11111222,99999999' 
TABS,ioos:station:wmo:42044:1,2006-08-02T03:00:00Z,26.1914,-97.0507,2.0,314.3908105,14.62379568,-99999.0,'11111222,11111222,99999999' 
TABS,ioos:station:wmo:42044:1,2006-08-02T03:30:00Z,26.1914,-97.0507,2.0,314.8317287,16.82214315,-99999.0,'11111222,11111222,99999999' 
TABS,ioos:station:wmo:42044:1,2006-08-02T04:00:00Z,26.1914,-97.0507,2.0,316.4388278,15.77345238,-99999.0,'11111222,11111222,99999999' 
TABS,ioos:station:wmo:42044:1,2006-08-02T04:30:00Z,26.1914,-97.0507,2.0,330.6748904,12.53652663,-99999.0,'11111222,11111222,99999999' 
TABS,ioos:station:wmo:42044:1,2006-08-02T05:00:00Z,26.1914,-97.0507,2.0,335.4841066,13.13411588,-99999.0,'11111222,11111222,99999999' 
TABS,ioos:station:wmo:42044:1,2006-08-02T05:30:00Z,26.1914,-97.0507,2.0,331.5442859,11.24907552,-99999.0,'11111222,11111222,99999999' 
TABS,ioos:station:wmo:42044:1,2006-08-02T06:00:00Z,26.1914,-97.0507,2.0,339.2562474,11.77323235,-99999.0,'11111222,11111222,99999999' 
TABS,ioos:station:wmo:42044:1,2006-08-02T06:30:00Z,26.1914,-97.0507,2.0,331.35578,13.4341989,-99999.0,'11111222,11111222,99999999' 
TABS,ioos:station:wmo:42044:1,2006-08-02T07:00:00Z,26.1914,-97.0507,2.0,336.1184358,14.42503726,-99999.0,'11111222,11111222,99999999' 
TABS,ioos:station:wmo:42044:1,2006-08-02T07:30:00Z,26.1914,-97.0507,2.0,333.6797516,13.62225018,-99999.0,'11111222,11111222,99999999' 
TABS,ioos:station:wmo:42044:1,2006-08-02T08:00:00Z,26.1914,-97.0507,2.0,339.6405073,11.95699377,-99999.0,'11111222,11111222,99999999' 
TABS,ioos:station:wmo:42044:1,2006-08-02T08:30:00Z,26.1914,-97.0507,2.0,339.401428,10.9714402,-99999.0,'11111222,11111222,99999999' 
TABS,ioos:station:wmo:42044:1,2006-08-02T09:00:00Z,26.1914,-97.0507,2.0,343.9058958,8.982037631,-99999.0,'11133222,11111222,99999999' 
TABS,ioos:station:wmo:42044:1,2006-08-02T09:30:00Z,26.1914,-97.0507,2.0,340.7660407,10.65475011,-99999.0,'11111222,11111222,99999999' 
TABS,ioos:station:wmo:42044:1,2006-08-02T10:00:00Z,26.1914,-97.0507,2.0,350.9809091,8.930419923,-99999.0,'11133222,11111222,99999999' 
TABS,ioos:station:wmo:42044:1,2006-08-02T10:30:00Z,26.1914,-97.0507,2.0,1.259911694,9.552308621,-99999.0,'11133222,11111222,99999999' 
TABS,ioos:station:wmo:42044:1,2006-08-02T11:00:00Z,26.1914,-97.0507,2.0,352.75229,9.828534987,-99999.0,'11133222,11111222,99999999' 
TABS,ioos:station:wmo:42044:1,2006-08-02T11:30:00Z,26.1914,-97.0507,2.0,15.62054621,6.053577455,-99999.0,'11133222,11111222,99999999' 
TABS,ioos:station:wmo:42044:1,2006-08-02T12:00:00Z,26.1914,-97.0507,2.0,24.27594002,7.613179362,-99999.0,'11133222,11111222,99999999' 
TABS,ioos:station:wmo:42044:1,2006-08-02T12:30:00Z,26.1914,-97.0507,2.0,14.6308704,4.909185268,-99999.0,'11133222,11111222,99999999' 
TABS,ioos:station:wmo:42044:1,2006-08-02T13:00:00Z,26.1914,-97.0507,2.0,12.06506666,5.358357957,-99999.0,'11133222,11111222,99999999' 
TABS,ioos:station:wmo:42044:1,2006-08-02T13:30:00Z,26.1914,-97.0507,2.0,21.4617228,6.887561252,-99999.0,'11133222,11111222,99999999' 
TABS,ioos:station:wmo:42044:1,2006-08-02T14:00:00Z,26.1914,-97.0507,2.0,5.071183422,2.941513216,-99999.0,'11133222,11111222,99999999' 
TABS,ioos:station:wmo:42044:1,2006-08-02T14:30:00Z,26.1914,-97.0507,2.0,69.33713659,4.392561895,-99999.0,'11133222,11111222,99999999' 
TABS,ioos:station:wmo:42044:1,2006-08-02T15:00:00Z,26.1914,-97.0507,2.0,65.54427665,4.009750616,-99999.0,'11133222,11111222,99999999' 
TABS,ioos:station:wmo:42044:1,2006-08-02T15:30:00Z,26.1914,-97.0507,2.0,80.86117225,2.329570776,-99999.0,'11133222,11111222,99999999' 
TABS,ioos:station:wmo:42044:1,2006-08-02T16:00:00Z,26.1914,-97.0507,2.0,62.26587435,1.095901455,-99999.0,'11133222,11111222,99999999' 
TABS,ioos:station:wmo:42044:1,2006-08-02T16:30:00Z,26.1914,-97.0507,2.0,126.0658374,3.278322742,-99999.0,'11133222,11111222,99999999' 
TABS,ioos:station:wmo:42044:1,2006-08-02T17:00:00Z,26.1914,-97.0507,2.0,163.6303889,4.82560877,-99999.0,'11133222,11111222,99999999' 
TABS,ioos:station:wmo:42044:1,2006-08-02T17:30:00Z,26.1914,-97.0507,2.0,170.6566483,4.742921041,-99999.0,'11133222,11111222,99999999' 
TABS,ioos:station:wmo:42044:1,2006-08-02T18:00:00Z,26.1914,-97.0507,2.0,185.6344685,6.009034864,-99999.0,'11133222,11111222,99999999' 
TABS,ioos:station:wmo:42044:1,2006-08-02T18:30:00Z,26.1914,-97.0507,2.0,178.737975,4.541101188,-99999.0,'11133222,11111222,99999999' 
TABS,ioos:station:wmo:42044:1,2006-08-02T19:00:00Z,26.1914,-97.0507,2.0,190.5607755,3.600999861,-99999.0,'11133222,11111222,99999999' 
TABS,ioos:station:wmo:42044:1,2006-08-02T19:30:00Z,26.1914,-97.0507,2.0,221.0421405,3.380961402,-99999.0,'11133222,11111222,99999999' 
TABS,ioos:station:wmo:42044:1,2006-08-02T20:00:00Z,26.1914,-97.0507,2.0,179.9997895,1.17,-99999.0,'11133222,11111222,99999999' 
TABS,ioos:station:wmo:42044:1,2006-08-02T20:30:00Z,26.1914,-97.0507,2.0,257.6876461,2.579321616,-99999.0,'11133222,11111222,99999999' 
TABS,ioos:station:wmo:42044:1,2006-08-02T21:00:00Z,26.1914,-97.0507,2.0,238.8943246,4.858569748,-99999.0,'11133222,11111222,99999999' 
TABS,ioos:station:wmo:42044:1,2006-08-02T21:30:00Z,26.1914,-97.0507,2.0,252.9353472,7.667555021,-99999.0,'11133222,11111222,99999999' 
TABS,ioos:station:wmo:42044:1,2006-08-02T22:00:00Z,26.1914,-97.0507,2.0,258.631896,5.834457987,-99999.0,'11133222,11111222,99999999' 
TABS,ioos:station:wmo:42044:1,2006-08-02T22:30:00Z,26.1914,-97.0507,2.0,264.8974258,7.871187966,-99999.0,'11133222,11111222,99999999' 
TABS,ioos:station:wmo:42044:1,2006-08-02T23:00:00Z,26.1914,-97.0507,2.0,276.9699184,10.05429262,-99999.0,'11111222,11111222,99999999' 
TABS,ioos:station:wmo:42044:1,2006-08-02T23:30:00Z,26.1914,-97.0507,2.0,281.5588648,15.37172729,-99999.0,'11111222,11111222,99999999' 
TABS,ioos:station:wmo:42044:1,2006-08-03T00:00:00Z,26.1914,-97.0507,2.0,298.2853266,14.75127791,-99999.0,'11111222,11111222,99999999' 
TABS,ioos:station:wmo:42044:1,2006-08-03T00:30:00Z,26.1914,-97.0507,2.0,295.0957367,14.99553267,-99999.0,'11111222,11111222,99999999' 
TABS,ioos:station:wmo:42044:1,2006-08-03T01:00:00Z,26.1914,-97.0507,2.0,289.5650965,14.27413395,-99999.0,'11111222,11111222,99999999' 
TABS,ioos:station:wmo:42044:1,2006-08-03T01:30:00Z,26.1914,-97.0507,2.0,287.6847716,7.242237223,-99999.0,'11133222,11111222,99999999' 
TABS,ioos:station:wmo:42044:1,2006-08-03T02:00:00Z,26.1914,-97.0507,2.0,302.798428,14.78732565,-99999.0,'11111222,11111222,99999999' 
TABS,ioos:station:wmo:42044:1,2006-08-03T02:30:00Z,26.1914,-97.0507,2.0,311.9790323,15.02569133,-99999.0,'11111222,11111222,99999999' 
TABS,ioos:station:wmo:42044:1,2006-08-03T03:00:00Z,26.1914,-97.0507,2.0,302.4001853,11.70159391,-99999.0,'11111222,11111222,99999999' 
TABS,ioos:station:wmo:42044:1,2006-08-03T03:30:00Z,26.1914,-97.0507,2.0,313.6965147,9.944495965,-99999.0,'11133222,11111222,99999999' 
TABS,ioos:station:wmo:42044:1,2006-08-03T04:00:00Z,26.1914,-97.0507,2.0,317.7911747,10.74662738,-99999.0,'11111222,11111222,99999999' 
TABS,ioos:station:wmo:42044:1,2006-08-03T04:30:00Z,26.1914,-97.0507,2.0,313.5345238,13.82138922,-99999.0,'11111222,11111222,99999999' 
TABS,ioos:station:wmo:42044:1,2006-08-03T05:00:00Z,26.1914,-97.0507,2.0,299.0801567,13.25028302,-99999.0,'11111222,11111222,99999999' 
TABS,ioos:station:wmo:42044:1,2006-08-03T05:30:00Z,26.1914,-97.0507,2.0,312.6759382,13.42486127,-99999.0,'11111222,11111222,99999999' 
TABS,ioos:station:wmo:42044:1,2006-08-03T06:00:00Z,26.1914,-97.0507,2.0,313.9988663,11.73269364,-99999.0,'11111222,11111222,99999999' 
TABS,ioos:station:wmo:42044:1,2006-08-03T06:30:00Z,26.1914,-97.0507,2.0,319.5158928,13.29244146,-99999.0,'11111222,11111222,99999999' 
TABS,ioos:station:wmo:42044:1,2006-08-03T07:00:00Z,26.1914,-97.0507,2.0,329.4315357,10.69662096,-99999.0,'11111222,11111222,99999999' 
TABS,ioos:station:wmo:42044:1,2006-08-03T07:30:00Z,26.1914,-97.0507,2.0,316.4584354,9.725867571,-99999.0,'11133222,11111222,99999999' 
TABS,ioos:station:wmo:42044:1,2006-08-03T08:00:00Z,26.1914,-97.0507,2.0,320.9480017,10.03127609,-99999.0,'11111222,11111222,99999999' 
TABS,ioos:station:wmo:42044:1,2006-08-03T08:30:00Z,26.1914,-97.0507,2.0,336.8835144,10.11191871,-99999.0,'11111222,11111222,99999999' 
TABS,ioos:station:wmo:42044:1,2006-08-03T09:00:00Z,26.1914,-97.0507,2.0,345.942838,13.13330499,-99999.0,'11111222,11111222,99999999' 
TABS,ioos:station:wmo:42044:1,2006-08-03T09:30:00Z,26.1914,-97.0507,2.0,339.255027,9.570506779,-99999.0,'11133222,11111222,99999999' 
TABS,ioos:station:wmo:42044:1,2006-08-03T10:00:00Z,26.1914,-97.0507,2.0,350.7374069,11.80391884,-99999.0,'11111222,11111222,99999999' 
TABS,ioos:station:wmo:42044:1,2006-08-03T10:30:00Z,26.1914,-97.0507,2.0,340.8101033,10.55659983,-99999.0,'11111222,11111222,99999999' 
TABS,ioos:station:wmo:42044:1,2006-08-03T11:00:00Z,26.1914,-97.0507,2.0,339.6649889,8.201134068,-99999.0,'11133222,11111222,99999999' 
TABS,ioos:station:wmo:42044:1,2006-08-03T11:30:00Z,26.1914,-97.0507,2.0,342.7187525,5.655298401,-99999.0,'11133222,11111222,99999999' 
TABS,ioos:station:wmo:42044:1,2006-08-03T12:00:00Z,26.1914,-97.0507,2.0,356.8536171,7.651535794,-99999.0,'11133222,11111222,99999999' 
TABS,ioos:station:wmo:42044:1,2006-08-03T12:30:00Z,26.1914,-97.0507,2.0,23.65096789,7.652777274,-99999.0,'11133222,11111222,99999999' 
TABS,ioos:station:wmo:42044:1,2006-08-03T13:00:00Z,26.1914,-97.0507,2.0,45.00010523,5.529575029,-99999.0,'11133222,11111222,99999999' 
TABS,ioos:station:wmo:42044:1,2006-08-03T13:30:00Z,26.1914,-97.0507,2.0,58.1906851,3.718494319,-99999.0,'11133222,11111222,99999999' 
TABS,ioos:station:wmo:42044:1,2006-08-03T14:00:00Z,26.1914,-97.0507,2.0,75.59718602,2.653394053,-99999.0,'11133222,11111222,99999999' 
TABS,ioos:station:wmo:42044:1,2006-08-03T14:30:00Z,26.1914,-97.0507,2.0,31.21107012,1.987687098,-99999.0,'11133222,11111222,99999999' 
TABS,ioos:station:wmo:42044:1,2006-08-03T15:00:00Z,26.1914,-97.0507,2.0,27.86261429,2.567664308,-99999.0,'11133222,11111222,99999999' 
TABS,ioos:station:wmo:42044:1,2006-08-03T15:30:00Z,26.1914,-97.0507,2.0,65.03557356,5.283654039,-99999.0,'11133222,11111222,99999999' 
TABS,ioos:station:wmo:42044:1,2006-08-03T16:00:00Z,26.1914,-97.0507,2.0,103.2116501,4.550439539,-99999.0,'11133222,11111222,99999999' 
TABS,ioos:station:wmo:42044:1,2006-08-03T16:30:00Z,26.1914,-97.0507,2.0,79.36625037,4.98561932,-99999.0,'11133222,11111222,99999999' 
TABS,ioos:station:wmo:42044:1,2006-08-03T17:00:00Z,26.1914,-97.0507,2.0,117.7950746,5.833009515,-99999.0,'11133222,11111222,99999999' 
TABS,ioos:station:wmo:42044:1,2006-08-03T17:30:00Z,26.1914,-97.0507,2.0,138.0303645,2.407529854,-99999.0,'11133222,11111222,99999999' 
TABS,ioos:station:wmo:42044:1,2006-08-03T18:00:00Z,26.1914,-97.0507,2.0,133.5120307,3.267935128,-99999.0,'11133222,11111222,99999999' 
TABS,ioos:station:wmo:42044:1,2006-08-03T18:30:00Z,26.1914,-97.0507,2.0,241.3554632,2.711899703,-99999.0,'11133222,11111222,99999999' 
TABS,ioos:station:wmo:42044:1,2006-08-03T19:00:00Z,26.1914,-97.0507,2.0,191.1763468,2.527943828,-99999.0,'11133222,11111222,99999999' 
TABS,ioos:station:wmo:42044:1,2006-08-03T19:30:00Z,26.1914,-97.0507,2.0,198.9873692,4.917570538,-99999.0,'11133222,11111222,99999999' 
TABS,ioos:station:wmo:42044:1,2006-08-03T20:00:00Z,26.1914,-97.0507,2.0,213.0057541,6.737314005,-99999.0,'11133222,11111222,99999999' 
TABS,ioos:station:wmo:42044:1,2006-08-03T20:30:00Z,26.1914,-97.0507,2.0,230.4459988,6.407027392,-99999.0,'11133222,11111222,99999999' 
TABS,ioos:station:wmo:42044:1,2006-08-03T21:00:00Z,26.1914,-97.0507,2.0,223.1279437,5.412254613,-99999.0,'11133222,11111222,99999999' 
TABS,ioos:station:wmo:42044:1,2006-08-03T21:30:00Z,26.1914,-97.0507,2.0,242.26041,8.293081454,-99999.0,'11133222,11111222,99999999' 
TABS,ioos:station:wmo:42044:1,2006-08-03T22:00:00Z,26.1914,-97.0507,2.0,246.6807161,7.502866119,-99999.0,'11133222,11111222,99999999' 
TABS,ioos:station:wmo:42044:1,2006-08-03T22:30:00Z,26.1914,-97.0507,2.0,248.1523596,6.959863504,-99999.0,'11133222,11111222,99999999' 
TABS,ioos:station:wmo:42044:1,2006-08-03T23:00:00Z,26.1914,-97.0507,2.0,246.3315209,5.928684508,-99999.0,'11133222,11111222,99999999' 
TABS,ioos:station:wmo:42044:1,2006-08-03T23:30:00Z,26.1914,-97.0507,2.0,261.8865633,4.74751514,-99999.0,'11133222,11111222,99999999' 
TABS,ioos:station:wmo:42044:1,2006-08-04T00:00:00Z,26.1914,-97.0507,2.0,264.4950693,7.193170372,-99999.0,'11133222,11111222,99999999' 
TABS,ioos:station:wmo:42044:1,2006-08-04T00:30:00Z,26.1914,-97.0507,2.0,269.026203,8.241189235,-99999.0,'11133222,11111222,99999999' 
TABS,ioos:station:wmo:42044:1,2006-08-04T01:00:00Z,26.1914,-97.0507,2.0,258.5291065,8.397725883,-99999.0,'11133222,11111222,99999999' 
TABS,ioos:station:wmo:42044:1,2006-08-04T01:30:00Z,26.1914,-97.0507,2.0,239.9983307,3.879845358,-99999.0,'11133222,11111222,99999999' 
TABS,ioos:station:wmo:42044:1,2006-08-04T02:00:00Z,26.1914,-97.0507,2.0,239.9642567,11.0082242,-99999.0,'11111222,11111222,99999999' 
TABS,ioos:station:wmo:42044:1,2006-08-04T02:30:00Z,26.1914,-97.0507,2.0,260.7142454,9.048563422,-99999.0,'11133222,11111222,99999999' 
TABS,ioos:station:wmo:42044:1,2006-08-04T03:00:00Z,26.1914,-97.0507,2.0,252.6285161,8.005104621,-99999.0,'11133222,11111222,99999999' 
TABS,ioos:station:wmo:42044:1,2006-08-04T03:30:00Z,26.1914,-97.0507,2.0,271.1306446,8.111578145,-99999.0,'11133222,11111222,99999999' 
TABS,ioos:station:wmo:42044:1,2006-08-04T04:00:00Z,26.1914,-97.0507,2.0,256.4066077,5.956853196,-99999.0,'11133222,11111222,99999999' 
TABS,ioos:station:wmo:42044:1,2006-08-04T04:30:00Z,26.1914,-97.0507,2.0,256.9120384,6.006005328,-99999.0,'11133222,11111222,99999999' 
TABS,ioos:station:wmo:42044:1,2006-08-04T05:00:00Z,26.1914,-97.0507,2.0,261.2143009,7.791411939,-99999.0,'11133222,11111222,99999999' 
TABS,ioos:station:wmo:42044:1,2006-08-04T05:30:00Z,26.1914,-97.0507,2.0,270.6514798,6.160397714,-99999.0,'11133222,11111222,99999999' 
TABS,ioos:station:wmo:42044:1,2006-08-04T06:00:00Z,26.1914,-97.0507,2.0,280.7846936,7.482145414,-99999.0,'11133222,11111222,99999999' 
TABS,ioos:station:wmo:42044:1,2006-08-04T06:30:00Z,26.1914,-97.0507,2.0,285.4931373,7.824301886,-99999.0,'11133222,11111222,99999999' 
TABS,ioos:station:wmo:42044:1,2006-08-04T07:00:00Z,26.1914,-97.0507,2.0,291.0228248,8.195492664,-99999.0,'11133222,11111222,99999999' 
TABS,ioos:station:wmo:42044:1,2006-08-04T07:30:00Z,26.1914,-97.0507,2.0,287.9371162,5.455135195,-99999.0,'11133222,11111222,99999999' 
TABS,ioos:station:wmo:42044:1,2006-08-04T08:00:00Z,26.1914,-97.0507,2.0,307.304282,6.864196967,-99999.0,'11133222,11111222,99999999' 
TABS,ioos:station:wmo:42044:1,2006-08-04T08:30:00Z,26.1914,-97.0507,2.0,302.2371321,6.561440391,-99999.0,'11133222,11111222,99999999' 
TABS,ioos:station:wmo:42044:1,2006-08-04T09:00:00Z,26.1914,-97.0507,2.0,319.229026,5.849555539,-99999.0,'11133222,11111222,99999999' 
TABS,ioos:station:wmo:42044:1,2006-08-04T09:30:00Z,26.1914,-97.0507,2.0,320.5206196,3.601735693,-99999.0,'11133222,11111222,99999999' 
TABS,ioos:station:wmo:42044:1,2006-08-04T10:00:00Z,26.1914,-97.0507,2.0,350.34034,2.383799488,-99999.0,'11133222,11111222,99999999' 
TABS,ioos:station:wmo:42044:1,2006-08-04T10:30:00Z,26.1914,-97.0507,2.0,349.8001013,2.936409372,-99999.0,'11133222,11111222,99999999' 
TABS,ioos:station:wmo:42044:1,2006-08-04T11:00:00Z,26.1914,-97.0507,2.0,50.74069844,2.686335794,-99999.0,'11133222,11111222,99999999' 
TABS,ioos:station:wmo:42044:1,2006-08-04T11:30:00Z,26.1914,-97.0507,2.0,141.5651376,2.783037908,-99999.0,'11133222,11111222,99999999' 
TABS,ioos:station:wmo:42044:1,2006-08-04T12:00:00Z,26.1914,-97.0507,2.0,104.5001329,2.99541316,-99999.0,'11133222,11111222,99999999' 
TABS,ioos:station:wmo:42044:1,2006-08-04T12:30:00Z,26.1914,-97.0507,2.0,97.16243966,5.694435881,-99999.0,'11133222,11111222,99999999' 
TABS,ioos:station:wmo:42044:1,2006-08-04T13:00:00Z,26.1914,-97.0507,2.0,105.1321019,7.355025493,-99999.0,'11133222,11111222,99999999' 
TABS,ioos:station:wmo:42044:1,2006-08-04T13:30:00Z,26.1914,-97.0507,2.0,103.2102307,9.758222174,-99999.0,'11133222,11111222,99999999' 
TABS,ioos:station:wmo:42044:1,2006-08-04T14:00:00Z,26.1914,-97.0507,2.0,123.2928238,10.80304587,-99999.0,'11111222,11111222,99999999' 
TABS,ioos:station:wmo:42044:1,2006-08-04T14:30:00Z,26.1914,-97.0507,2.0,126.3705559,12.39447054,-99999.0,'11111222,11111222,99999999' 
TABS,ioos:station:wmo:42044:1,2006-08-04T15:00:00Z,26.1914,-97.0507,2.0,124.5610071,14.59584872,-99999.0,'11111222,11111222,99999999' 
TABS,ioos:station:wmo:42044:1,2006-08-04T15:30:00Z,26.1914,-97.0507,2.0,126.9092712,14.52000344,-99999.0,'11111222,11111222,99999999' 
TABS,ioos:station:wmo:42044:1,2006-08-04T16:00:00Z,26.1914,-97.0507,2.0,138.9907985,13.41098058,-99999.0,'11111222,11111222,99999999' 